Terminal Aerodrome Forecast
Issued by NWS

Home | Current Version | Previous Version | Text Only | Print | Product List | Glossary On
Versions: 1 2 3 4 5 6 7 8 9 10 11 12
000
FTUS46 KPDT 021140
TAFRDM
TAF
KRDM 021140Z 0212/0312 16004KT P6SM FEW120 SCT150
     FM021600 33006KT P6SM SCT120 BKN200
     FM022200 32010G17KT P6SM SCT120 BKN150
     FM030300 31008KT P6SM SCT150 BKN260=

USA.gov is the U.S. government's official web portal to all federal, state and local government web resources and services.